Volver al catálogo

CZ-6A DEB

ActivoPO
NORAD 61421·DEBRIS·🇨🇳 China

Lanzado Aug 6, 2024 desde Taiyuan Satellite Launch Center

Loading…

Próximos Pases (próximas 24 horas)

TLE

ActualizadoSource: Space-Track

Época: Sep 14, 2026, 00:48 UTC

1 61421U 24140YN  26257.03353042  .00001263  00000-0  58888-3 0  9999
2 61421  89.1421 278.0793 0063038 279.9228  79.4850 14.18897225104078

Sigue CZ-6A DEB en tiempo real con AllMySat

Download on the App Store